FW8254 Weather Reports


time (UTC)temp
C
wind
direction
speed
KPH
gust
KPH
rain 1hr
cm
rain 24hr
cm
rain mn
cm
humidity
%
barometer
mb
20260504215107 26 324 3.2 8.0 0.00 0.00 0.00 29 1009.5
20260504214603 26 292 8.0 11.3 0.00 0.00 0.00 27 1009.8
20260504214059 26 222 6.4 9.7 0.00 0.00 0.00 29 1009.5
20260504213556 26 345 4.8 9.7 0.00 0.00 0.00 29 1009.5
20260504213053 26 284 4.8 8.0 0.00 0.00 0.00 26 1009.6
20260504212549 26 300 8.0 9.7 0.00 0.00 0.00 28 1009.8
20260504212046 26 320 4.8 4.8 0.00 0.00 0.00 25 1009.7
20260504211543 26 337 3.2 8.0 0.00 0.00 0.00 26 1009.7
20260504211040 26 51 0.0 3.2 0.00 0.00 0.00 25 1009.6
20260504210537 26 10 4.8 4.8 0.00 0.00 0.00 27 1009.8
20260504210034 26 47 0.0 1.6 0.00 0.00 0.00 27 1009.7
20260504205532 26 45 0.0 3.2 0.00 0.00 0.00 27 1009.5
20260504205030 26 61 1.6 3.2 0.00 0.00 0.00 27 1009.8
20260504204527 26 49 0.0 3.2 0.00 0.00 0.00 27 1009.5
20260504204026 25 102 4.8 8.0 0.00 0.00 0.00 30 1009.8
20260504203523 25 359 3.2 9.7 0.00 0.00 0.00 30 1009.8
20260504203021 25 330 3.2 8.0 0.00 0.00 0.00 29 1009.9
20260504202516 26 290 4.8 8.0 0.00 0.00 0.00 29 1009.8
20260504202013 26 258 8.0 11.3 0.00 0.00 0.00 28 1010.0
20260504201510 26 52 1.6 4.8 0.00 0.00 0.00 29 1010.2
20260504201008 26 344 4.8 8.0 0.00 0.00 0.00 29 1010.1
20260504200504 26 21 3.2 3.2 0.00 0.00 0.00 29 1010.1
20260504200001 26 326 4.8 4.8 0.00 0.00 0.00 31 1010.2
20260504195457 26 36 0.0 3.2 0.00 0.00 0.00 29 1010.3
20260504194954 25 41 0.0 3.2 0.00 0.00 0.00 29 1010.2
20260504194450 26 322 4.8 4.8 0.00 0.00 0.00 30 1010.5
20260504193945 25 15 1.6 4.8 0.00 0.00 0.00 30 1010.6
20260504193443 24 327 4.8 11.3 0.00 0.00 0.00 31 1010.7
20260504192942 25 294 6.4 8.0 0.00 0.00 0.00 28 1011.0
20260504192438 25 60 1.6 4.8 0.00 0.00 0.00 29 1010.9
20260504191938 25 321 4.8 12.9 0.00 0.00 0.00 31 1010.9
20260504191435 25 63 3.2 9.7 0.00 0.00 0.00 28 1011.0
20260504190930 25 58 1.6 3.2 0.00 0.00 0.00 31 1011.2
20260504190426 25 353 4.8 4.8 0.00 0.00 0.00 31 1011.4
20260504185923 25 16 1.6 4.8 0.00 0.00 0.00 31 1011.2
20260504185420 25 196 4.8 4.8 0.00 0.00 0.00 30 1011.6
20260504184916 24 319 4.8 4.8 0.00 0.00 0.00 38 1011.5
20260504184412 24 339 3.2 8.0 0.00 0.00 0.00 34 1011.7
20260504183908 23 331 4.8 8.0 0.00 0.00 0.00 33 1011.6
20260504183405 25 314 4.8 4.8 0.00 0.00 0.00 34 1011.6
20260504182903 23 31 1.6 4.8 0.00 0.00 0.00 33 1011.7
20260504182400 24 306 6.4 9.7 0.00 0.00 0.00 34 1011.7
20260504181856 24 42 0.0 3.2 0.00 0.00 0.00 32 1011.6
20260504181354 23 293 4.8 8.0 0.00 0.00 0.00 32 1012.0
20260504180853 23 80 1.6 4.8 0.00 0.00 0.00 32 1011.9
20260504180351 23 2 3.2 8.0 0.00 0.00 0.00 33 1012.0
20260504175849 23 284 8.0 9.7 0.00 0.00 0.00 34 1012.0
20260504175345 22 303 8.0 12.9 0.00 0.00 0.00 37 1012.2
20260504174843 22 280 11.3 12.9 0.00 0.00 0.00 38 1012.1
20260504174341 23 108 3.2 3.2 0.00 0.00 0.00 35 1012.0
20260504173837 22 292 6.4 9.7 0.00 0.00 0.00 38 1012.2
20260504173334 22 285 8.0 12.9 0.00 0.00 0.00 35 1012.4
20260504172831 22 62 1.6 3.2 0.00 0.00 0.00 35 1012.6
20260504172328 22 11 3.2 3.2 0.00 0.00 0.00 37 1012.4
20260504171824 22 25 1.6 1.6 0.00 0.00 0.00 36 1012.3
20260504171321 22 279 8.0 9.7 0.00 0.00 0.00 40 1012.7
20260504170818 22 297 4.8 4.8 0.00 0.00 0.00 38 1012.6
20260504170315 21 285 4.8 11.3 0.00 0.00 0.00 37 1012.4
20260504160233 21 333 4.8 8.0 0.00 0.00 0.00 44 1013.3
20260504150659 20 297 8.0 9.7 0.00 0.00 0.00 45 1013.7
20260504150155 19 281 9.7 9.7 0.00 0.00 0.00 46 1013.8
20260504141124 18 301 14.5 17.7 0.00 0.00 0.00 55 1013.9
20260504140621 17 310 6.4 11.3 0.00 0.00 0.00 57 1013.8
20260504140117 17 292 4.8 8.0 0.00 0.00 0.00 57 1014.2
20260504130545 13 8 3.2 8.0 0.00 0.00 0.00 70 1013.9
20260504110433 8 53 0.0 0.0 0.00 0.00 0.00 91 1013.9
20260504100349 8 52 0.0 0.0 0.00 0.00 0.00 89 1013.5
20260504081742 8 52 0.0 0.0 0.00 0.00 0.00 86 1013.2
20260504081239 8 52 0.0 0.0 0.00 0.00 0.00 87 1013.2
20260504080735 8 52 0.0 0.0 0.00 0.00 0.00 87 1013.1
20260504080232 8 52 0.0 0.0 0.00 0.00 0.00 87 1013.2
20260504070159 8 52 0.0 0.0 0.00 0.00 0.00 90 1013.2
20260504060120 10 44 0.0 0.0 0.00 0.00 0.00 89 1013.2
20260504050548 11 41 0.0 0.0 0.00 0.00 0.00 88 1013.3
20260504045542 11 41 0.0 1.6 0.00 0.00 0.00 88 1013.5
20260504045037 11 41 0.0 0.0 0.00 0.00 0.00 88 1013.4
20260504044535 11 41 0.0 0.0 0.00 0.00 0.00 88 1013.3
20260504044032 11 41 0.0 0.0 0.00 0.00 0.00 88 1013.5
20260504043529 11 41 0.0 0.0 0.00 0.00 0.00 88 1013.5
20260504043026 11 41 0.0 0.0 0.00 0.00 0.00 88 1013.5
20260504042523 11 41 0.0 0.0 0.00 0.00 0.00 88 1013.3
20260504042020 11 41 0.0 0.0 0.00 0.00 0.00 88 1013.3
20260504041516 11 41 0.0 0.0 0.00 0.00 0.00 87 1013.4
20260504041012 12 41 0.0 0.0 0.00 0.00 0.00 87 1013.4
20260504040510 12 41 0.0 0.0 0.00 0.00 0.00 87 1013.2
20260504040006 12 41 0.0 0.0 0.00 0.03 0.03 87 1013.3
20260504035503 12 41 0.0 0.0 0.00 0.03 0.03 87 1013.4
20260504034959 12 41 0.0 0.0 0.00 0.03 0.03 87 1013.2
20260504034457 12 41 0.0 0.0 0.00 0.03 0.03 87 1013.4
20260504033954 12 41 0.0 0.0 0.00 0.03 0.03 86 1013.3
20260504033452 12 41 0.0 0.0 0.00 0.03 0.03 86 1013.2
20260504032949 12 41 0.0 0.0 0.00 0.03 0.03 86 1013.5
20260504032446 12 41 0.0 0.0 0.00 0.03 0.03 86 1013.1
20260504031942 12 41 0.0 0.0 0.00 0.03 0.03 86 1013.3
20260504031439 12 41 0.0 0.0 0.00 0.03 0.03 86 1013.1
20260504030936 12 41 0.0 1.6 0.00 0.03 0.03 85 1013.3
20260504030433 12 41 0.0 0.0 0.00 0.03 0.03 85 1013.2
20260504025929 12 41 0.0 0.0 0.00 0.03 0.03 85 1013.4
20260504025426 12 41 0.0 0.0 0.00 0.03 0.03 84 1013.2
20260504024923 12 41 0.0 0.0 0.00 0.03 0.03 84 1013.4
20260504024420 13 41 0.0 0.0 0.00 0.03 0.03 84 1013.2
20260504023917 13 41 1.6 1.6 0.00 0.03 0.03 84 1013.0
20260504023413 13 41 0.0 0.0 0.00 0.03 0.03 83 1013.1
20260504022909 13 41 0.0 0.0 0.00 0.03 0.03 82 1013.2
20260504022406 13 41 0.0 0.0 0.00 0.03 0.03 82 1013.0
20260504021902 13 41 0.0 0.0 0.00 0.03 0.03 82 1012.9
20260504021400 13 41 0.0 0.0 0.00 0.03 0.03 81 1013.1
20260504020857 13 41 0.0 0.0 0.00 0.03 0.03 81 1012.9
20260504020353 13 41 0.0 0.0 0.00 0.03 0.03 81 1012.7
20260504015849 13 41 0.0 0.0 0.00 0.03 0.03 80 1012.9
20260504015346 13 41 0.0 0.0 0.00 0.03 0.03 79 1012.7
20260504014842 14 41 0.0 0.0 0.00 0.03 0.03 79 1012.8
20260504014338 14 41 0.0 0.0 0.00 0.03 0.03 79 1012.7
20260504013836 14 41 0.0 1.6 0.00 0.03 0.03 78 1012.6
20260504013333 15 40 1.6 1.6 0.00 0.03 0.03 77 1012.6
20260504012830 15 40 0.0 0.0 0.00 0.03 0.03 77 1012.6
20260504012328 15 40 0.0 1.6 0.00 0.03 0.03 75 1012.6
20260504011825 15 39 1.6 1.6 0.00 0.03 0.03 74 1012.4
20260504011321 15 29 0.0 0.0 0.00 0.03 0.03 73 1012.3
20260504010817 16 29 0.0 0.0 0.00 0.03 0.03 72 1012.2
20260504010313 16 29 0.0 0.0 0.00 0.03 0.03 70 1012.2
20260504005810 16 29 0.0 0.0 0.00 0.03 0.03 67 1012.1
20260504005307 16 29 0.0 0.0 0.00 0.03 0.03 63 1012.1
20260504004804 16 28 1.6 1.6 0.00 0.03 0.03 61 1012.0
20260504004302 16 28 0.0 0.0 0.00 0.03 0.03 57 1011.9
20260504003758 17 28 0.0 0.0 0.00 0.03 0.03 56 1011.9
20260504003255 17 27 0.0 0.0 0.00 0.03 0.03 56 1012.0
20260504002751 17 27 0.0 0.0 0.00 0.03 0.03 56 1011.7
20260504002249 17 27 0.0 0.0 0.00 0.03 0.03 53 1011.8
20260504001746 18 27 0.0 0.0 0.00 0.03 0.03 49 1011.9
20260504001243 18 27 0.0 0.0 0.00 0.03 0.03 48 1012.0
20260504000740 19 27 0.0 1.6 0.00 0.03 0.03 49 1011.9
20260504000237 19 18 1.6 3.2 0.00 0.03 0.03 48 1011.7
20260503235735 20 16 1.6 3.2 0.00 0.03 0.03 45 1011.9
20260503235232 20 348 3.2 4.8 0.00 0.03 0.03 44 1011.7
20260503234730 20 1 1.6 3.2 0.00 0.03 0.03 44 1011.6
20260503234228 20 351 3.2 4.8 0.00 0.03 0.03 42 1011.9
20260503233725 20 317 4.8 4.8 0.00 0.03 0.03 42 1011.6
20260503233220 20 354 3.2 4.8 0.00 0.03 0.03 44 1011.9
20260503232717 20 310 4.8 8.0 0.00 0.03 0.03 42 1011.8
20260503232214 20 317 4.8 4.8 0.00 0.03 0.03 44 1011.8
20260503231713 20 300 4.8 8.0 0.00 0.03 0.03 43 1011.6
20260503231209 20 298 6.4 8.0 0.00 0.03 0.03 44 1011.7
20260503230705 20 302 6.4 8.0 0.00 0.03 0.03 44 1012.0
20260503230202 20 299 8.0 11.3 0.00 0.03 0.03 40 1012.0
20260503225659 20 280 9.7 14.5 0.00 0.03 0.03 41 1011.8
20260503225154 20 279 9.7 14.5 0.00 0.03 0.03 39 1012.0
20260503224652 20 304 4.8 4.8 0.00 0.03 0.03 42 1011.8
20260503224149 20 337 3.2 4.8 0.00 0.03 0.03 43 1011.8
20260503223647 20 343 4.8 8.0 0.00 0.03 0.03 41 1012.0
20260503223143 20 270 6.4 11.3 0.00 0.03 0.03 42 1011.9
20260503222640 20 260 8.0 12.9 0.00 0.03 0.03 44 1011.9
20260503222138 20 341 4.8 4.8 0.00 0.03 0.03 42 1011.9
20260503221636 21 333 4.8 8.0 0.00 0.03 0.03 39 1011.9
20260503221133 20 329 4.8 11.3 0.00 0.03 0.03 42 1012.1
20260503220630 20 34 1.6 1.6 0.00 0.03 0.03 39 1011.9
20260503220127 20 29 0.0 3.2 0.00 0.03 0.03 38 1011.8
20260503215624 20 314 4.8 8.0 0.00 0.03 0.03 41 1012.0